Tornike Janelidze

Olheiro-Chefe - Dinamo Tbilisi
23 Abr 2028
Domingo
Processo

Personalidade

Adaptabilidade (1) Ambição (19) Controvérsia (2) Lealdade (5) Pressão (12) Profissionalismo (5) Espírito Esportivo (16) Temperamento (2)

Perfil

Estilo de Treinamento Democrático
Licença Continental B
Determinação 9
Gestão de Pessoas 11
Motivação 11
Disciplina 7
Satisfação no Trabalho
100%
Fadiga
0%
Função Olheiro-Chefe
Salário 49.6K p/s
Contrato 14.03.2029

Desempenho

Comportamento Bom
Eficácia do Treinamento
38%
Desenvolvimento do Jogador
20%
Prevenção de Lesões
55%
Implementação Tática
20%

Eventos Recentes

Avaliou um jogador agora
Participou de uma reunião de recrutamento agora
Participou de uma reunião de recrutamento agora
Participou de uma reunião de recrutamento agora
Participou de uma reunião de recrutamento agora
Avaliou um jogador agora
Avaliou um jogador agora
Avaliou um jogador 7d atrás

Monitorando agora

341
Jogador Clube Status Habilidade Confiança Observado Última observação Último voto
Karlan Grant Tranmere Rovers Ativo 138 / 137 40% 4 21.04.2028 -
Theo Bair AJ Auxerre Ativo 142 / 122 40% 1 21.04.2028 -
Evgeny Latyshonok Nizhniy Novgorod Ativo 145 / 143 40% 3 20.04.2028 -
Liam Cullen Swansea City Ativo 119 / 107 40% 3 20.04.2028 -
Gaëtan Coucke Sampdoria Ativo 114 / 135 40% 1 20.04.2028 -
Kaye Furo Reading Ativo 124 / 138 40% 1 20.04.2028 -
Callum Lang Preston Ativo 134 / 128 40% 3 19.04.2028 -
Abu Kamara Portsmouth Ativo 131 / 120 40% 1 19.04.2028 -
Fabrizio Cavegn Swindon Town Ativo 121 / 120 40% 4 17.04.2028 -
Nicolò Buso Catanzaro Ativo 114 / 115 40% 2 17.04.2028 -
Zakaria Aboukhlal Torino Ativo 123 / 148 40% 4 16.04.2028 -
Bernat Guiu Virtus Entella Ativo 118 / 106 40% 2 15.04.2028 -
Sam Nombe Milton Keynes Dons Ativo 109 / 102 40% 1 15.04.2028 -
Fran Vieites Walsall Ativo 115 / 121 40% 1 15.04.2028 -
Shamal George Doncaster Rovers Ativo 119 / 112 40% 1 15.04.2028 -
Matheus Alves Baltika Ativo 123 / 150 40% 2 13.04.2028 -
Gustavo Santos Krasnodar Ativo 143 / 122 40% 1 13.04.2028 -
Simone Rabbi Ravenna Ativo 133 / 110 40% 2 12.04.2028 -
Conor Chaplin Leicester City Ativo 124 / 131 40% 1 12.04.2028 -
Reyes Cleary Bromley Ativo 110 / 119 40% 1 12.04.2028 -
Josh Stokes Bristol City Ativo 106 / 113 40% 1 12.04.2028 -
George Evans Exeter City Ativo 97 / 113 40% 2 11.04.2028 -
Alexei Rojas Fedorushchenko Barrow AFC Ativo 119 / 113 40% 1 11.04.2028 -
Pedro Mendes Modena Ativo 129 / 123 40% 2 08.04.2028 -
Dale Taylor Blackpool Ativo 112 / 108 40% 1 08.04.2028 -
Luca Moro Padova Ativo 142 / 118 40% 3 07.04.2028 -
Kyle Wootton Stockport County Ativo 117 / 116 40% 1 06.04.2028 -
Dor Turgeman Rubin Ativo 145 / 133 40% 4 05.04.2028 -
Alieu Njie Torino Ativo 131 / 133 40% 1 05.04.2028 -
Tyreece Campbell Charlton Athletic Ativo 140 / 137 40% 1 03.04.2028 -
Giuseppe Sibilli Juve Stabia Ativo 107 / 132 40% 5 02.04.2028 -
Miles Leaburn Rotherham United Ativo 124 / 113 40% 1 01.04.2028 -
Demarai Gray Birmingham Ativo 135 / 144 40% 1 01.04.2028 -
Brayan Gil Baltika Ativo 116 / 121 40% 4 30.03.2028 -
Toni Tamarit Alverca Ativo 137 / 135 40% 2 30.03.2028 -
Eom Ji-Sung Mansfield Town Ativo 114 / 112 40% 2 30.03.2028 -
Ryan McAidoo Oldham Athletic Ativo 106 / 126 40% 1 30.03.2028 -
Chuba Akpom Grimsby Town Ativo 126 / 118 40% 1 29.03.2028 -
Mark Sykes Millwall Ativo 130 / 115 40% 1 28.03.2028 -
Marco Tumminello Benevento Ativo 136 / 118 40% 2 26.03.2028 -
Walid Cheddira Avellino Ativo 134 / 112 40% 1 26.03.2028 -
Caylan Vickers Burton Albion Ativo 119 / 120 40% 2 24.03.2028 -
Nathan Moriah-Welsh Mansfield Town Ativo 115 / 109 40% 1 24.03.2028 -
Manuel De Luca Cremonese Ativo 135 / 117 40% 1 24.03.2028 -
Vanja Vlahović Spezia Ativo 111 / 128 40% 2 23.03.2028 -
Hidemasa Morita Hull City Ativo 146 / 154 40% 1 22.03.2028 -
Ryan Kavuma-McQueen Accrington Stanley Ativo 108 / 125 40% 1 22.03.2028 -
Vyacheslav Grulev Nizhniy Novgorod Ativo 100 / 102 40% 6 21.03.2028 -
Christian Saydee Wigan Athletic Ativo 122 / 114 40% 1 20.03.2028 -
Tom Davies Barnet Ativo 123 / 141 40% 1 20.03.2028 -
Lewis Bate Stockport County Ativo 144 / 116 40% 1 20.03.2028 -
M'Bala Nzola Cagliari Ativo 133 / 138 40% 1 17.03.2028 -
Charles Vernam Grimsby Town Ativo 121 / 116 40% 1 16.03.2028 -
Jérémy Le Douaron Palermo Ativo 133 / 138 40% 1 16.03.2028 -
Timur Suleimanov Nizhniy Novgorod Ativo 105 / 109 40% 2 15.03.2028 -
Dane Scarlett Leyton Orient Ativo 124 / 128 40% 1 15.03.2028 -
Miro Arsenal Tula Ativo 122 / 103 40% 1 13.03.2028 -
Michele Cerofolini Empoli Ativo 122 / 134 40% 1 13.03.2028 -
Camillo Tavernelli Arezzo Ativo 109 / 132 40% 4 12.03.2028 -
Elijah Adebayo Luton Town Ativo 108 / 116 40% 1 12.03.2028 -
Charlie Kelman Barnsley Ativo 109 / 122 40% 1 10.03.2028 -
Jorge Cabezas Hurtado Watford Ativo 111 / 116 40% 1 09.03.2028 -
Álvaro Tejero Leganés Ativo 129 / 135 40% 2 08.03.2028 -
Aaron Collins Milton Keynes Dons Ativo 129 / 122 40% 1 08.03.2028 -
Edoardo Soleri Bari Ativo 122 / 125 40% 1 08.03.2028 -
Joe Whitworth Wigan Athletic Ativo 120 / 119 40% 1 07.03.2028 -
Mikhail Ignatov Sochi Ativo 109 / 107 40% 3 04.03.2028 -
Egas Cacintura Akhmat Grozny Ativo 137 / 125 40% 4 04.03.2028 -
Hwang Hee-Chan Wolverhampton Ativo 144 / 152 40% 1 04.03.2028 -
Mohau Nkota Al-Ettifaq Ativo 133 / 122 40% 1 04.03.2028 -
Dardan Shabanhaxhaj Rubin Ativo 138 / 119 40% 4 29.02.2028 -
Sergio Cubero Eibar Ativo 131 / 129 40% 1 29.02.2028 -
Harvey White Stevenage Ativo 135 / 108 40% 1 29.02.2028 -
Ignacio Ramírez Newell's Old Boys Ativo 116 / 113 40% 1 29.02.2028 -
Tomislav Štrkalj Esteghlal Ativo 112 / 107 40% 1 28.02.2028 -
Agustín Hausch Defensa y Justicia Ativo 133 / 132 40% 1 28.02.2028 -
Denzel Jubitana Neftchi Ativo 121 / 130 40% 3 27.02.2028 -
Edwuin Cetré Estudiantes Ativo 119 / 119 40% 2 27.02.2028 -
Carlos Fernández Oviedo Ativo 148 / 122 40% 4 25.02.2028 -
Facundo Farías Estudiantes Ativo 132 / 125 40% 2 24.02.2028 -
Myles Roberts Cambridge United Ativo 100 / 102 40% 1 24.02.2028 -
Matías Vargas Gimnasia y Esgrima Ativo 115 / 137 40% 1 24.02.2028 -
Owen Gene Minnesota United FC Ativo 134 / 133 40% 3 23.02.2028 -
Jordan Larsson Al-Hilal Ativo 115 / 120 40% 4 23.02.2028 -
Ignacio Saavedra Sochi Ativo 122 / 130 40% 2 23.02.2028 -
Jefry Zapata Aldosivi Ativo 121 / 127 40% 1 23.02.2028 -
Silvère Ganvoula Al-Hilal Ativo 116 / 106 40% 3 21.02.2028 -
Nicholas Bonfanti Pisa Ativo 137 / 116 40% 1 21.02.2028 -
Kevin Piscopo Juve Stabia Ativo 107 / 123 40% 2 19.02.2028 -
Randy Nteka Krasnodar Ativo 139 / 132 40% 1 19.02.2028 -
Liam Walsh Luton Town Ativo 132 / 131 40% 1 19.02.2028 -
Dmitry Vorobjov Krasnodar Ativo 129 / 112 40% 1 17.02.2028 -
Juan Manuel Gutiérrez Defensa y Justicia Ativo 117 / 132 40% 1 17.02.2028 -
Uchenna Ogundu FC Augsburg Ativo 130 / 127 40% 2 16.02.2028 -
Moussa Koné Al-Ra'ed Ativo 125 / 104 40% 3 15.02.2028 -
Nodar Lominadze Torpedo Kutaisi Ativo 113 / 108 40% 4 14.02.2028 -
Maksim Samorodov Akhmat Grozny Ativo 114 / 121 40% 2 14.02.2028 -
François Kamano Sochi Ativo 100 / 119 40% 1 14.02.2028 -
Kaique Kenji Fortaleza Ativo 117 / 109 40% 1 13.02.2028 -
John Mercado Sparta Prague Ativo 110 / 117 40% 1 08.02.2028 -
Paddy McNair Burton Albion Ativo 119 / 125 40% 1 08.02.2028 -
Frank Tsadjout Cremonese Ativo 124 / 132 40% 1 06.02.2028 -
Remco Balk Twente Ativo 128 / 133 40% 1 05.02.2028 -
Tamerlan Musaev CSKA Moscow Ativo 121 / 121 40% 2 04.02.2028 -
Davis Keillor-Dunn Wrexham Ativo 111 / 136 40% 1 04.02.2028 -
Facundo Batista Penarol Ativo 124 / 119 40% 3 03.02.2028 -
Santiago Solari Racing Club Ativo 139 / 114 40% 1 03.02.2028 -
Esteban Obregón Montevideo City Torque Ativo 115 / 121 40% 1 03.02.2028 -
Santiago Rodríguez Gimnasia y Esgrima Ativo 132 / 132 40% 3 01.02.2028 -
David Okereke Cremonese Rejeitado 135 / 120 40% 2 31.01.2028 Mais informações
Facundo Kruspzky Al Wahda Ativo 108 / 136 40% 2 27.01.2028 -
Alexander Díaz Deportivo Riestra Ativo 124 / 130 40% 1 27.01.2028 -
David Min Utrecht Ativo 136 / 125 40% 2 26.01.2028 -
Leandro Allende Colón Ativo 132 / 120 40% 1 26.01.2028 -
Franco Díaz Temperley Ativo 141 / 121 40% 1 26.01.2028 -
Augusto Berrondo Tristán Suárez Ativo 102 / 124 40% 2 25.01.2028 -
Matías Rosales Sarmiento Ativo 103 / 114 40% 1 25.01.2028 -
Alex Valera Universitario Ativo 125 / 128 40% 2 22.01.2028 -
Leonardo Candellone Juve Stabia Ativo 133 / 110 40% 1 22.01.2028 -
Renaldo Cephas Gabala Ativo 117 / 117 40% 2 21.01.2028 -
Gustavo Del Prete San Lorenzo Ativo 113 / 119 40% 1 21.01.2028 -
Marcelo Torres Gimnasia La Plata Ativo 127 / 119 40% 2 18.01.2028 -
Gastón Moreyra Almirante Brown Ativo 112 / 117 40% 1 17.01.2028 -
Rodrigo Bogarín Barracas Central Ativo 116 / 122 40% 1 16.01.2028 -
Ignacio Vázquez Platense Ativo 113 / 144 40% 1 13.01.2028 -
Luis Olivera Defensores Unidos Perdido 119 / 94 40% 1 13.01.2028 -
Bruno Leyes Godoy Cruz Ativo 136 / 120 40% 2 12.01.2028 -
Nicola Rauti Vicenza Ativo 107 / 114 40% 1 12.01.2028 -
Santiago Martínez Godoy Cruz Ativo 116 / 122 40% 2 11.01.2028 -
Sandro Altunashvili Dinamo Batumi Perdido 106 / 100 51% 1 10.01.2028 -
Abdoulie Sanyang Hajduk Split Ativo 107 / 117 40% 1 10.01.2028 -
Jonás Acevedo Instituto Ativo 113 / 119 40% 1 07.01.2028 -
Elías Torres Racing Club Ativo 120 / 126 40% 1 07.01.2028 -
Walter Juárez Güemes Perdido 125 / 124 40% 1 03.01.2028 -
Fernando Bersano Madryn Ativo 111 / 114 40% 1 03.01.2028 -
Antony Alonso Deportivo Riestra Ativo 123 / 113 40% 1 02.01.2028 -
Yeferson Rodallega Envigado Ativo 123 / 119 40% 5 01.01.2028 -
Daniel Eni Chikhura Ativo 84 / 94 51% 1 01.01.2028 -
Claudio Bravo Argentinos Juniors Ativo 130 / 118 40% 1 01.01.2028 -
Santiago Moyano Central Córdoba SdE Ativo 134 / 133 40% 1 31.12.2027 -
Blas Armoa Gimnasia y Esgrima Ativo 104 / 113 40% 1 30.12.2027 -
Gennaro Tutino Sampdoria Ativo 139 / 140 40% 1 29.12.2027 -
Alen Ožbolt Apollon Ativo 113 / 123 40% 1 29.12.2027 -
Riccardo Gagno Vicenza Ativo 133 / 137 40% 1 29.12.2027 -
Francisco Salerno Defensores Unidos Ativo 97 / 121 40% 1 29.12.2027 -
Leandro Allende Colón Perdido 133 / 121 40% 1 27.12.2027 -
Sasha Marcich Lanús Ativo 125 / 133 40% 1 25.12.2027 -
Gonzalo Gamarra Defensores Ativo 107 / 107 40% 1 25.12.2027 -
Tomás Rojas Atlanta Ativo 116 / 107 40% 2 24.12.2027 -
Fernando Martínez Central Córdoba SdE Ativo 132 / 110 40% 5 23.12.2027 -
Matej Šimić Torpedo Kutaisi Ativo 113 / 109 40% 3 22.12.2027 -
Mathías de Ritis San Lorenzo Ativo 122 / 134 40% 1 22.12.2027 -
Christian Cappis FC Dallas Ativo 107 / 125 40% 2 20.12.2027 -
Gabriel Díaz Patronato Ativo 97 / 112 40% 1 20.12.2027 -
Jan Đapo Dila Ativo 106 / 98 40% 3 19.12.2027 -
Agustín Dattola Almirante Brown Perdido 125 / 112 40% 4 19.12.2027 -
Derik Lacerda Kawasaki Frontale Ativo 139 / 125 40% 1 18.12.2027 Mais informações
Thomas Ortega Quilmes Ativo 98 / 122 40% 2 17.12.2027 -
Juan Pablo Córdoba Gimnasia y Esgrima Ativo 94 / 121 40% 1 17.12.2027 -
Leonel Pollacchi San Telmo Ativo 119 / 103 40% 1 15.12.2027 -
Miguel Merentiel Köln Ativo 121 / 148 40% 1 15.12.2027 Mais informações
Didier Bueno Jaguares Ativo 107 / 104 40% 6 12.12.2027 -
Sirlord Conteh Heidenheim Ativo 116 / 134 40% 1 12.12.2027 -
Nikoloz Mali Dila Ativo 113 / 103 40% 5 11.12.2027 -
Matías Rapetti Defensores Unidos Ativo 113 / 98 40% 2 07.12.2027 -
Fernando Rodríguez Almirante Brown Ativo 110 / 123 40% 3 05.12.2027 -
Franco Hanashiro Colegiales Ativo 93 / 107 40% 4 02.12.2027 -
Paulo Vitor Dinamo Batumi Ativo 124 / 112 40% 4 01.12.2027 -
Lorenzo Monti Temperley Ativo 99 / 112 40% 1 27.11.2027 -
Mateo Stamatov Torpedo Kutaisi Ativo 97 / 113 40% 2 24.11.2027 -
Justin Haak LA Galaxy Ativo 114 / 108 40% 3 23.11.2027 -
Luciano Recalde Quilmes Ativo 101 / 123 40% 1 23.11.2027 -
Beka Dartsmelia Saburtalo Ativo 111 / 105 40% 1 22.11.2027 -
Eric Barrios Samtredia Ativo 100 / 90 40% 1 19.11.2027 -
Bruno Palazzo Nueva Chicago Ativo 103 / 106 40% 3 18.11.2027 -
Murat Celik Tskhinvali Ativo 116 / 110 40% 1 06.11.2027 -
Tomás Porra Barracas Central Ativo 105 / 134 40% 1 02.11.2027 -
Santiago Corbo Miramar Misiones Ativo 102 / 120 40% 1 30.10.2027 -
Andrés Tello Deportes Quindio Ativo 116 / 109 40% 3 29.10.2027 -
Ramaric Etou Dila Ativo 102 / 94 40% 1 28.10.2027 -
Lautaro Núñez Alvarado Ativo 104 / 101 40% 1 26.10.2027 -
Bence Gergényi Lokomotivi Ativo 108 / 102 40% 1 17.10.2027 -
Francisco Maidana Gimnasia y Esgrima Ativo 126 / 108 40% 2 08.10.2027 -
Osaze Urhoghide FC Dallas Ativo 118 / 105 40% 1 05.10.2027 -
Victor Hernandez Santa Fe Ativo 105 / 133 40% 3 11.09.2027 -
Joel Medina Independiente Ativo 96 / 111 40% 1 11.09.2027 -
Santiago Cuellar Central Norte Ativo 99 / 97 40% 1 05.09.2027 -
Julián Bragado Morón Ativo 101 / 98 40% 1 05.09.2027 -
Sebastián Ramírez Aguilas Doradas Ativo 116 / 100 40% 1 03.09.2027 -
Piero Cari Alianza Lima Ativo 112 / 98 40% 1 03.09.2027 -
Hassan Beja AFC Leopards Ativo 92 / 84 40% 3 02.09.2027 -
Ramiro Jara Racing Ativo 70 / 100 40% 1 02.09.2027 -
Vinícius Lira São Paulo Ativo 123 / 123 40% 1 01.09.2027 -
Dato Chakvetadze Zugdidi Ativo 77 / 86 40% 1 29.08.2027 -
Jonathan Farías Torpedo Kutaisi Ativo 95 / 111 40% 5 24.08.2027 Observar
Fabián Suárez Chalares Aguilas Doradas Ativo 95 / 102 40% 2 21.08.2027 -
Matteo Stoppa Campobasso Ativo 115 / 112 40% 1 16.08.2027 -
Nicolás Ferreira Artigas Ativo 96 / 93 40% 1 15.08.2027 -
Juan Esteban Ávalo Aguilas Doradas Ativo 101 / 116 40% 2 13.08.2027 -
Quique Fornos Huesca Ativo 97 / 95 40% 1 13.08.2027 -
Enrique Céspedes Chikhura Ativo 77 / 73 40% 1 12.08.2027 -
Anthony da Costa Artigas Ativo 70 / 79 40% 1 12.08.2027 -
Juan David Rueda Alianza Petrolera Ativo 113 / 100 40% 1 09.08.2027 -
James Furlong Walsall Ativo 109 / 125 40% 1 09.08.2027 -
Pablo García Gijón Ativo 95 / 126 40% 10 08.08.2027 -
Zech Medley Fleetwood Town Ativo 92 / 106 40% 3 08.08.2027 -
Johan Campaña Patriotas Ativo 126 / 125 40% 1 06.08.2027 -
Germán Barbas Burgos Ativo 99 / 124 40% 4 05.08.2027 -
Abdulateef Yusuff FC Diarra Ativo 69 / 89 40% 1 05.08.2027 -
Rhys Bennett Fleetwood Town Ativo 105 / 114 40% 2 03.08.2027 -
Gabriel Rincon Atletico Venezuela Ativo 104 / 117 40% 1 02.08.2027 -
Joe Anderson Barrow AFC Ativo 82 / 114 40% 1 01.08.2027 -
Joe Snowdon Swindon Town Ativo 109 / 115 40% 1 25.07.2027 -
Sam Gale Gillingham Ativo 93 / 110 40% 1 25.07.2027 -
Felipe Pires Torpedo Kutaisi Ativo 109 / 114 40% 2 24.07.2027 -
Samuele Careccia Pergolettese Ativo 121 / 106 40% 1 21.07.2027 -
Lewis Richards Crawley Town Ativo 104 / 116 40% 1 19.07.2027 -
Kallum Cesay Salford City Ativo 120 / 107 40% 2 14.07.2027 -
Miguel Gutierrez Veracruz Ativo 104 / 123 40% 1 14.07.2027 -
Radhi Al-Otaibi Al-Ettifaq Ativo 98 / 113 40% 1 10.07.2027 -
David Karaev KAMAZ Ativo 101 / 112 40% 2 08.07.2027 -
Eldar Ćivić Baltika Ativo 104 / 111 40% 3 08.07.2027 -
Santiago Vera Almirante Brown Ativo 105 / 116 40% 1 30.06.2027 -
Alexandr Yushin Torpedo Moscow Ativo 114 / 95 40% 2 27.06.2027 -
Niccolò Zanellato Casarano Ativo 117 / 90 40% 1 27.06.2027 -
Eduardo Fernandes Benfica Ativo 120 / 105 40% 1 25.06.2027 -
Nikolay Giorgobiani Fakel Ativo 108 / 116 40% 2 24.06.2027 -
Kirill Danilin Ural Ativo 110 / 100 40% 3 20.06.2027 -
Aboubacar Doumbia Al-Orobah Ativo 95 / 106 40% 1 18.06.2027 -
Jason Al-Fayha Ativo 110 / 115 40% 1 16.06.2027 -
André Miranda Porto Ativo 95 / 104 40% 1 16.06.2027 -
Đorđe Pantelić Spartak Kostroma Ativo 125 / 99 40% 1 14.06.2027 -
Charlie Savage Reading Ativo 108 / 116 40% 3 30.05.2027 -
Ahmed Al-Nakhli Al-Hazem Ativo 100 / 125 40% 1 30.05.2027 -
Riley Owen Stevenage Ativo 99 / 93 40% 2 29.05.2027 -
Luis Haquín Al-Ta'ee Ativo 103 / 114 40% 1 29.05.2027 -
Artem Simonyan Rotor Ativo 86 / 114 40% 2 25.05.2027 -
Salvador Manríquez Dorados Ativo 97 / 121 40% 2 20.05.2027 -
Iker Pozo Rodina Ativo 133 / 104 40% 6 18.05.2027 -
Jack Hendry Al-Ettifaq Ativo 111 / 108 40% 1 14.05.2027 -
Ekain Orobengoa Real Sociedad Ativo 93 / 100 40% 1 14.05.2027 -
Daniil Penchikov Arsenal Tula Ativo 89 / 92 40% 2 10.05.2027 -
Kirill Malyarov Shinnik Ativo 85 / 89 40% 3 08.05.2027 -
Nikita Kakkoev Nizhniy Novgorod Ativo 97 / 122 40% 4 03.05.2027 -
Ruslan Apekov Torpedo Moscow Ativo 86 / 90 40% 4 01.05.2027 -
Kamran Aliev SKA Khabarovsk Ativo 86 / 102 40% 2 01.05.2027 -
Marat Bokoev Akron Ativo 113 / 105 40% 1 29.04.2027 -
Miloš Brnović Arsenal Tula Ativo 106 / 114 40% 2 26.04.2027 -
Amar Rahmanović Krylya Sovetov Ativo 112 / 102 40% 1 25.04.2027 -
Harouna Djibirin Angers SCO Ativo 105 / 131 40% 1 25.04.2027 -
Stanislav Magkeev Fakel Ativo 102 / 94 40% 1 21.04.2027 -
Léo Cordeiro Ural Ativo 124 / 102 40% 1 20.04.2027 -
Samuel Justo Sporting CP Ativo 123 / 108 40% 3 17.04.2027 -
Ramazan Gadjimuradov Chelyabinsk Ativo 115 / 90 40% 1 16.04.2027 -
Temirkan Sundukov Dinamo Makhachkala Ativo 128 / 96 40% 2 14.04.2027 -
Pavel Maslov Chaika Ativo 124 / 116 40% 4 13.04.2027 -
Vladis Emmersón Yenisey Ativo 98 / 113 40% 1 13.04.2027 -
Maxime Sivis Orenburg Ativo 101 / 115 40% 3 10.04.2027 -
Yassine Benzia Al-Qadisiyah Ativo 136 / 119 40% 1 09.04.2027 -
Diogo Monteiro Tondela Ativo 105 / 107 40% 1 06.04.2027 -
Rio Shipston Sheffield Wednesday Ativo 119 / 92 40% 1 03.04.2027 -
Ilja Berkovskiy Torpedo Moscow Ativo 115 / 116 40% 1 01.04.2027 -
Ítalo Ural Ativo 127 / 114 40% 2 30.03.2027 -
Fahd Moufi Baltika Ativo 104 / 119 40% 1 26.03.2027 -
Hugo Moura Al-Fayha Ativo 132 / 137 40% 1 26.03.2027 -
Artem Meschaninov Rodina Ativo 115 / 103 40% 1 25.03.2027 -
Gonçalo Oliveira Benfica Ativo 105 / 115 40% 1 24.03.2027 -
Soslan Takulov Arsenal Tula Ativo 105 / 107 40% 3 22.03.2027 -
Pedro Rebocho Al-Khaleej Ativo 106 / 103 40% 1 22.03.2027 -
Darko Todorović Fakel Ativo 120 / 98 40% 3 20.03.2027 -
Vladislav Kamilov Ufa Ativo 89 / 105 40% 1 19.03.2027 -
Alan Tsaraev Arsenal Tula Ativo 92 / 90 40% 1 16.03.2027 -
Alexandr Ektov Nizhniy Novgorod Ativo 122 / 109 40% 2 11.03.2027 -
Tin Jedvaj Al-Shabab Ativo 117 / 126 40% 1 06.03.2027 -
Yegor Danilkin Rotor Ativo 86 / 104 40% 1 05.03.2027 -
Vasily Cherov Ufa Ativo 101 / 107 40% 1 05.03.2027 -
Saminu Abdullahi KAMAZ Ativo 86 / 93 40% 1 04.03.2027 -
Stefan Kovač Baltika Ativo 125 / 106 40% 1 03.03.2027 -
Álvaro Medrán Al-Ettifaq Ativo 114 / 119 40% 1 27.02.2027 -
Musab Al-Juwayr Al-Qadisiyah Ativo 132 / 134 40% 1 25.02.2027 -
Jaime Seoane Al-Faisaly Ativo 134 / 121 40% 1 25.02.2027 -
Martin Kramarič Krylya Sovetov Ativo 125 / 124 40% 1 14.02.2027 -
Veldin Hodža Rubin Ativo 115 / 137 40% 1 13.02.2027 -
Konstantin Kuchaev Rostov Ativo 102 / 130 40% 1 11.02.2027 -
Victor Melekhin Rostov Ativo 133 / 129 40% 1 04.02.2027 -
Fernando Costanza Krylya Sovetov Ativo 138 / 127 40% 1 03.02.2027 -
Ilja Vakhania Krasnodar Ativo 132 / 123 40% 2 01.02.2027 -
Chinedu Geoffrey Krylya Sovetov Ativo 125 / 105 40% 2 25.01.2027 -
Slobodan Tedić Akron Ativo 122 / 99 40% 1 25.01.2027 -
Mario Ćurić Torpedo Moscow Ativo 115 / 120 40% 1 18.01.2027 -
Matheus Silva Qarabag Ativo 114 / 112 40% 1 01.01.2027 -
Tenton Yenne Baltika Ativo 97 / 119 40% 3 31.12.2026 -
Matvey Ivanov Zenit Ativo 74 / 59 40% 1 30.12.2026 -
Denis Makarov Krylya Sovetov Ativo 118 / 127 40% 1 28.12.2026 -
Ruslan Bezrukov Rubin Ativo 101 / 99 40% 1 28.12.2026 -
Lander Astiazarán Real Sociedad Ativo 100 / 116 40% 1 28.12.2026 -
Tiago Almeida Sumgayit Ativo 106 / 109 40% 1 26.12.2026 -
Mohamed Konaté Akhmat Grozny Ativo 121 / 119 40% 4 22.12.2026 -
Rüstəm Əhmədzadə Sumgayit Ativo 119 / 110 40% 2 14.12.2026 -
Thomas Carrique Andorra Ativo 118 / 124 40% 1 14.12.2026 -
Luiz Araújo Flamengo Ativo 136 / 147 40% 1 14.12.2026 -
Giorgi Papunashvili Zira Ativo 122 / 100 40% 1 11.12.2026 -
Vladimir Khubulov Dinamo Makhachkala Ativo 98 / 113 40% 1 07.12.2026 -
Salvador Blopá Sporting CP Ativo 128 / 130 40% 1 02.12.2026 -
Franck Boli Al Ahly Ativo 120 / 113 40% 3 23.11.2026 -
Rhys Walters Port Vale Ativo 91 / 96 40% 1 23.11.2026 -
Kofi Duffour Cherepovets Ativo 89 / 74 40% 1 22.11.2026 -
Samuel Silalahi Stromsgodset Ativo 104 / 96 40% 1 20.11.2026 -
Maximiliano Gómez Nacional Ativo 129 / 136 40% 1 15.11.2026 -
Jonathan Okoronkwo Torpedo Moscow Ativo 117 / 93 40% 1 07.11.2026 -
Davit Volkovi Zira Ativo 110 / 106 40% 5 05.11.2026 -
Georgy Melkadze Akhmat Grozny Ativo 128 / 117 40% 1 05.11.2026 -
Alexandr Saplinov Volga Ativo 119 / 89 40% 1 03.11.2026 -
Shahriyar Abdullayev Ravan Ativo 100 / 110 40% 1 03.11.2026 -
Lechi Sadulaev Akhmat Grozny Ativo 124 / 127 40% 2 30.10.2026 -
Ismahil Akinade Gabala Ativo 107 / 90 40% 1 27.10.2026 -
Marko Janković Qarabag Ativo 130 / 128 40% 1 27.10.2026 -
Vladislav Sarveli Nizhniy Novgorod Ativo 119 / 101 40% 1 25.10.2026 -
Albin Andersson Falkenberg Ativo 118 / 96 40% 2 21.10.2026 -
Ousseynou Seck Randers Ativo 89 / 120 40% 1 20.10.2026 -
Gaspar Duarte Rosario Central Ativo 106 / 106 40% 3 18.10.2026 -
Macaulay Langstaff Millwall Ativo 132 / 128 40% 3 07.10.2026 -
Anthony Olusanya Kalmar FF Ativo 115 / 85 40% 1 04.10.2026 -
Job Ochieng Real Sociedad Ativo 118 / 109 40% 1 03.10.2026 -
Kyle Joseph Middlesbrough Ativo 119 / 108 40% 2 29.09.2026 -
Ezequiel Ávila Partizan Ativo 126 / 141 40% 1 27.09.2026 -
Magnus Lankhof Dahlby Stabaek Ativo 118 / 101 40% 2 26.09.2026 -
David Kalokoh Ajax Ativo 111 / 129 40% 1 26.09.2026 -
Uroš Đuranović Sliema Wanderers Ativo 108 / 116 40% 2 21.09.2026 -
Genaro Rossi San Martín SJ Ativo 95 / 94 40% 3 15.09.2026 -
Matheus Aiás Noah Ativo 106 / 123 40% 1 13.09.2026 -
Renat Garayev AZAL Ativo 115 / 104 40% 1 03.09.2026 -
Marcus Mehnert Stromsgodset Ativo 120 / 102 40% 1 02.09.2026 -
Deandre Kerr Toronto FC Ativo 111 / 102 40% 1 02.09.2026 -
Yeangel Montero Naxxar Lions Ativo 85 / 100 40% 1 31.08.2026 -
Joe Johnson Luton Town Ativo 109 / 118 40% 1 19.08.2026 -
Santiago Medina Huracán Ativo 98 / 99 40% 1 19.08.2026 -
Diego León Manchester United Ativo 103 / 104 40% 1 18.08.2026 -
Ibrahim Alhassan Saburtalo Ativo 98 / 111 48% 1 17.08.2026 -
Hugo Cuypers Monterrey Ativo 109 / 110 40% 1 01.08.2026 -
Diego Rossi Monterrey Ativo 118 / 149 40% 1 01.08.2026 -